Radiation Dose at Monitoring Post of Fukushima Daini Nuclear Power Station
Date,Time,MP-1(microSv/h),MP-2(microSv/h),MP-3(microSv/h),MP-4(microSv/h),MP-5(microSv/h),MP-6(microSv/h),MP-7(microSv/h),Wind Direction,Wind Velocity(m/s),Rain
2023/03/31,00:00,0.151,0.135,0.214,0.210,0.211,0.120,0.077,southwest,3.4,No
2023/03/31,00:10,0.151,0.135,0.213,0.210,0.211,0.119,0.076,west-southwest,4.2,No
2023/03/31,00:20,0.152,0.135,0.214,0.208,0.213,0.119,0.077,west-southwest,4.5,No
2023/03/31,00:30,0.152,0.135,0.214,0.209,0.211,0.120,0.076,southwest,5.1,No
2023/03/31,00:40,0.151,0.137,0.214,0.211,0.212,0.119,0.076,southwest,4.9,No
2023/03/31,00:50,0.152,0.135,0.215,0.209,0.212,0.119,0.076,southwest,6.3,No
2023/03/31,01:00,0.151,0.136,0.214,0.210,0.211,0.120,0.077,southwest,7.2,No
2023/03/31,01:10,0.151,0.136,0.213,0.210,0.213,0.120,0.077,south-southwest,7.2,No
2023/03/31,01:20,-,-,-,-,-,-,-,-,-,-
2023/03/31,01:30,0.151,0.135,0.214,0.211,0.211,0.120,0.077,south-southwest,6.6,No
2023/03/31,01:40,0.152,0.135,0.214,0.209,0.212,0.120,0.076,south-southwest,6.6,No
2023/03/31,01:50,0.151,0.135,0.215,0.210,0.210,0.120,0.076,south-southwest,6.0,No
2023/03/31,02:00,0.151,0.135,0.215,0.211,0.211,0.119,0.077,south-southwest,5.5,No
2023/03/31,02:10,0.152,0.135,0.213,0.209,0.211,0.119,0.076,southwest,5.4,No
2023/03/31,02:20,0.151,0.136,0.214,0.210,0.212,0.119,0.077,south-southwest,4.9,No
2023/03/31,02:30,0.151,0.135,0.214,0.210,0.212,0.119,0.077,southwest,4.8,No
2023/03/31,02:40,0.151,0.136,0.214,0.209,0.212,0.121,0.077,southwest,4.7,No
2023/03/31,02:50,0.151,0.136,0.214,0.209,0.211,0.120,0.077,southwest,4.7,No
2023/03/31,03:00,0.152,0.136,0.213,0.210,0.212,0.119,0.077,southwest,4.9,No
2023/03/31,03:10,0.151,0.135,0.213,0.210,0.211,0.120,0.077,southwest,5.4,No
2023/03/31,03:20,0.151,0.136,0.215,0.209,0.213,0.120,0.076,southwest,5.8,No
2023/03/31,03:30,0.151,0.136,0.214,0.210,0.210,0.120,0.077,southwest,5.9,No
2023/03/31,03:40,0.152,0.136,0.214,0.209,0.211,0.119,0.076,southwest,6.9,No
2023/03/31,03:50,0.151,0.136,0.215,0.209,0.212,0.120,0.077,southwest,6.7,No
2023/03/31,04:00,0.152,0.135,0.214,0.210,0.211,0.120,0.076,southwest,6.5,No
2023/03/31,04:10,0.152,0.136,0.214,0.210,0.212,0.120,0.076,southwest,5.7,No
2023/03/31,04:20,0.151,0.135,0.214,0.210,0.211,0.120,0.077,southwest,5.1,No
2023/03/31,04:30,0.152,0.135,0.214,0.211,0.212,0.119,0.076,southwest,4.4,No
2023/03/31,04:40,0.151,0.136,0.214,0.208,0.213,0.120,0.077,west-southwest,4.9,No
2023/03/31,04:50,0.152,0.135,0.215,0.210,0.212,0.120,0.076,west-southwest,3.2,No
2023/03/31,05:00,0.152,0.135,0.215,0.211,0.211,0.120,0.077,west-southwest,1.5,No
2023/03/31,05:10,0.152,0.136,0.214,0.209,0.212,0.120,0.077,west-southwest,2.1,No
2023/03/31,05:20,0.151,0.136,0.213,0.209,0.211,0.121,0.077,west-southwest,1.8,No
2023/03/31,05:30,0.152,0.136,0.214,0.211,0.211,0.119,0.076,west-northwest,2.0,No
2023/03/31,05:40,0.152,0.136,0.214,0.209,0.213,0.121,0.077,southwest,1.0,No
2023/03/31,05:50,0.151,0.135,0.214,0.210,0.210,0.120,0.077,south-southwest,1.8,No
2023/03/31,06:00,0.152,0.136,0.214,0.209,0.212,0.120,0.077,south-southwest,1.7,No
2023/03/31,06:10,0.151,0.136,0.215,0.209,0.212,0.120,0.077,south-southwest,2.5,No
2023/03/31,06:20,0.151,0.136,0.215,0.210,0.211,0.120,0.077,south,3.3,No
2023/03/31,06:30,0.152,0.136,0.214,0.210,0.213,0.120,0.078,south-southwest,3.2,No
2023/03/31,06:40,0.151,0.135,0.214,0.209,0.211,0.120,0.077,south-southwest,3.9,No
2023/03/31,06:50,0.152,0.135,0.214,0.209,0.212,0.119,0.077,south-southwest,4.7,No
2023/03/31,07:00,0.151,0.135,0.214,0.211,0.211,0.119,0.076,south-southwest,3.4,No
2023/03/31,07:10,0.152,0.135,0.214,0.208,0.211,0.119,0.077,southwest,3.1,No
2023/03/31,07:20,0.152,0.135,0.214,0.210,0.212,0.120,0.077,south-southwest,3.2,No
2023/03/31,07:30,0.152,0.135,0.212,0.210,0.211,0.120,0.076,south-southwest,2.5,No
2023/03/31,07:40,0.151,0.135,0.213,0.208,0.212,0.119,0.077,southwest,3.1,No
2023/03/31,07:50,0.151,0.135,0.212,0.210,0.210,0.119,0.077,south-southwest,3.3,No
2023/03/31,08:00,0.151,0.136,0.213,0.209,0.212,0.119,0.077,south-southwest,2.9,No
2023/03/31,08:10,0.152,0.136,0.213,0.208,0.209,0.120,0.076,south-southwest,3.8,No
2023/03/31,08:20,0.150,0.135,0.212,0.209,0.213,0.120,0.076,south-southwest,2.5,No
2023/03/31,08:30,0.151,0.135,0.213,0.208,0.210,0.119,0.077,south,2.4,No
2023/03/31,08:40,0.150,0.134,0.214,0.210,0.212,0.119,0.077,southwest,2.9,No
2023/03/31,08:50,0.151,0.135,0.213,0.209,0.211,0.119,0.075,south-southeast,4.3,No
2023/03/31,09:00,0.151,0.136,0.212,0.207,0.210,0.119,0.076,south,4.1,No
2023/03/31,09:10,0.151,0.134,0.214,0.210,0.211,0.120,0.077,south-southeast,4.7,No
2023/03/31,09:20,0.150,0.135,0.213,0.209,0.211,0.119,0.076,south-southeast,6.3,No
2023/03/31,09:30,0.150,0.135,0.211,0.207,0.210,0.119,0.076,south-southeast,6.0,No
2023/03/31,09:40,0.151,0.134,0.214,0.209,0.213,0.119,0.076,south-southeast,5.9,No
2023/03/31,09:50,0.151,0.134,0.215,0.210,0.211,0.119,0.076,south-southeast,5.6,No
2023/03/31,10:00,0.150,0.135,0.214,0.209,0.208,0.120,0.076,south-southeast,6.3,No
2023/03/31,10:10,0.152,0.135,0.212,0.208,0.211,0.120,0.077,south-southeast,5.7,No
2023/03/31,10:20,0.152,0.136,0.212,0.211,0.212,0.120,0.077,south-southeast,6.2,No
2023/03/31,10:30,0.150,0.136,0.215,0.210,0.210,0.119,0.076,south-southeast,5.5,No
2023/03/31,10:40,0.150,0.135,0.215,0.209,0.209,0.120,0.077,south-southeast,6.0,No
2023/03/31,10:50,0.151,0.134,0.212,0.208,0.211,0.119,0.078,south,6.9,No
2023/03/31,11:00,0.151,0.135,0.212,0.210,0.212,0.119,0.076,south,7.3,No
2023/03/31,11:10,0.150,0.135,0.213,0.211,0.211,0.120,0.076,south-southeast,6.9,No
2023/03/31,11:20,0.149,0.134,0.211,0.209,0.210,0.120,0.076,south-southeast,7.4,No
2023/03/31,11:30,0.150,0.135,0.212,0.209,0.209,0.119,0.077,south-southeast,7.9,No
2023/03/31,11:40,0.151,0.136,0.214,0.210,0.210,0.119,0.076,south-southeast,9.3,No
2023/03/31,11:50,0.151,0.135,0.215,0.211,0.211,0.119,0.076,south,10.6,No
2023/03/31,12:00,0.150,0.135,0.214,0.209,0.211,0.119,0.077,south-southeast,10.6,No
2023/03/31,12:10,0.149,0.136,0.212,0.210,0.210,0.119,0.076,south-southeast,9.0,No
2023/03/31,12:20,0.151,0.135,0.215,0.211,0.212,0.120,0.076,south-southeast,10.1,No
2023/03/31,12:30,0.152,0.135,0.215,0.209,0.211,0.119,0.076,south-southeast,10.0,No
2023/03/31,12:40,0.151,0.135,0.214,0.209,0.211,0.120,0.076,south-southeast,10.3,No
2023/03/31,12:50,0.151,0.136,0.213,0.212,0.210,0.120,0.077,south-southeast,8.8,No
2023/03/31,13:00,0.152,0.136,0.215,0.210,0.212,0.119,0.076,south-southeast,9.8,No
2023/03/31,13:10,-,-,-,-,-,-,-,-,-,-
2023/03/31,13:20,0.149,0.133,0.213,0.211,0.210,0.120,0.077,south-southeast,11.2,No
2023/03/31,13:30,0.152,0.135,0.216,0.209,0.212,0.120,0.076,south-southeast,11.8,No
2023/03/31,13:40,0.152,0.134,0.215,0.211,0.211,0.119,0.076,south-southeast,12.0,No
2023/03/31,13:50,0.151,0.135,0.214,0.210,0.212,0.121,0.077,south,10.1,No
2023/03/31,14:00,0.152,0.135,0.217,0.210,0.213,0.119,0.077,south-southeast,11.4,No
2023/03/31,14:10,0.150,0.136,0.214,0.211,0.212,0.120,0.077,south-southeast,9.5,No
2023/03/31,14:20,0.152,0.136,0.216,0.210,0.213,0.119,0.077,south-southeast,10.6,No
2023/03/31,14:30,0.153,0.135,0.214,0.212,0.211,0.120,0.077,south-southeast,9.5,No
2023/03/31,14:40,0.152,0.136,0.214,0.210,0.213,0.120,0.076,south,8.4,No
2023/03/31,14:50,0.150,0.137,0.216,0.213,0.212,0.120,0.077,south,8.2,No
2023/03/31,15:00,0.152,0.135,0.213,0.210,0.212,0.120,0.077,south,8.8,No
2023/03/31,15:10,0.152,0.136,0.216,0.210,0.212,0.120,0.077,south,8.8,No
2023/03/31,15:20,0.150,0.136,0.215,0.211,0.211,0.121,0.076,south,8.4,No
2023/03/31,15:30,0.152,0.136,0.213,0.210,0.214,0.120,0.077,south,7.9,No
2023/03/31,15:40,0.153,0.135,0.216,0.211,0.211,0.120,0.077,south,8.6,No
2023/03/31,15:50,0.150,0.136,0.214,0.208,0.210,0.121,0.076,south-southeast,8.2,No
2023/03/31,16:00,0.152,0.136,0.216,0.212,0.213,0.119,0.076,south-southeast,9.2,No
2023/03/31,16:10,0.151,0.136,0.215,0.210,0.211,0.120,0.077,south,7.5,No
2023/03/31,16:20,0.152,0.135,0.216,0.212,0.214,0.120,0.077,south-southeast,6.1,No
2023/03/31,16:30,0.153,0.136,0.215,0.210,0.212,0.121,0.076,south,6.2,No
2023/03/31,16:40,0.152,0.136,0.216,0.213,0.210,0.120,0.077,south,7.8,No
2023/03/31,16:50,0.153,0.136,0.214,0.210,0.212,0.120,0.077,south,7.0,No
2023/03/31,17:00,0.152,0.136,0.216,0.212,0.212,0.119,0.077,south,7.1,No
2023/03/31,17:10,0.153,0.137,0.214,0.211,0.214,0.120,0.077,south,7.6,No
2023/03/31,17:20,0.151,0.136,0.216,0.212,0.212,0.119,0.077,south-southwest,8.2,No
2023/03/31,17:30,0.153,0.137,0.215,0.210,0.213,0.120,0.076,south-southwest,7.2,No
2023/03/31,17:40,0.151,0.136,0.216,0.212,0.212,0.120,0.076,south-southwest,5.7,No
2023/03/31,17:50,0.153,0.136,0.214,0.211,0.213,0.120,0.077,south-southwest,6.7,No
2023/03/31,18:00,0.151,0.136,0.215,0.211,0.211,0.120,0.076,south-southwest,7.0,No
2023/03/31,18:10,0.154,0.136,0.216,0.211,0.215,0.120,0.077,south-southwest,5.6,No
2023/03/31,18:20,0.151,0.137,0.216,0.213,0.211,0.120,0.076,south-southwest,4.9,No
2023/03/31,18:30,0.153,0.136,0.217,0.212,0.213,0.120,0.077,south-southwest,4.5,No
2023/03/31,18:40,0.151,0.137,0.216,0.212,0.212,0.120,0.077,south-southwest,4.3,No
2023/03/31,18:50,0.153,0.136,0.216,0.211,0.215,0.121,0.077,south-southwest,4.3,No
2023/03/31,19:00,0.153,0.137,0.216,0.211,0.212,0.120,0.077,southwest,4.4,No
2023/03/31,19:10,0.152,0.136,0.215,0.212,0.213,0.121,0.077,southwest,4.5,No
2023/03/31,19:20,0.153,0.136,0.216,0.211,0.213,0.120,0.077,southwest,4.2,No
2023/03/31,19:30,0.153,0.136,0.217,0.212,0.213,0.119,0.077,southwest,5.0,No
2023/03/31,19:40,0.152,0.137,0.216,0.211,0.213,0.121,0.077,southwest,4.4,No
2023/03/31,19:50,0.152,0.138,0.216,0.211,0.212,0.121,0.077,southwest,5.4,No
2023/03/31,20:00,0.153,0.137,0.216,0.212,0.214,0.121,0.077,southwest,4.9,No
2023/03/31,20:10,0.152,0.137,0.216,0.212,0.213,0.120,0.077,southwest,3.8,No
2023/03/31,20:20,0.153,0.137,0.216,0.212,0.214,0.121,0.078,southwest,4.6,No
2023/03/31,20:30,0.152,0.137,0.215,0.211,0.213,0.120,0.077,southwest,4.4,No
2023/03/31,20:40,0.152,0.136,0.215,0.211,0.213,0.121,0.077,southwest,3.5,No
2023/03/31,20:50,0.154,0.136,0.216,0.213,0.213,0.120,0.078,southwest,4.4,No
2023/03/31,21:00,0.152,0.137,0.216,0.210,0.213,0.121,0.077,west-southwest,4.9,No
2023/03/31,21:10,0.152,0.137,0.216,0.213,0.213,0.121,0.077,west-southwest,4.0,No
2023/03/31,21:20,0.153,0.136,0.216,0.212,0.213,0.121,0.077,southwest,3.5,No
2023/03/31,21:30,0.153,0.136,0.216,0.212,0.213,0.120,0.077,southwest,3.5,No
2023/03/31,21:40,0.152,0.136,0.216,0.212,0.214,0.121,0.078,south-southwest,2.6,No
2023/03/31,21:50,0.152,0.136,0.216,0.211,0.211,0.121,0.077,southwest,2.7,No
2023/03/31,22:00,0.153,0.137,0.216,0.211,0.214,0.121,0.078,southwest,2.9,No
2023/03/31,22:10,0.153,0.137,0.217,0.212,0.213,0.121,0.078,southwest,4.5,No
2023/03/31,22:20,0.152,0.136,0.216,0.212,0.213,0.121,0.077,southwest,4.0,No
2023/03/31,22:30,0.152,0.137,0.216,0.213,0.214,0.121,0.078,southwest,3.9,No
2023/03/31,22:40,0.151,0.137,0.216,0.212,0.212,0.121,0.077,southwest,4.2,No
2023/03/31,22:50,0.153,0.137,0.216,0.212,0.214,0.120,0.078,west-southwest,4.0,No
2023/03/31,23:00,0.152,0.136,0.216,0.213,0.213,0.121,0.078,southwest,4.4,No
2023/03/31,23:10,0.153,0.137,0.217,0.212,0.213,0.121,0.077,southwest,4.6,No
2023/03/31,23:20,0.153,0.137,0.215,0.212,0.214,0.121,0.077,southwest,4.9,No
2023/03/31,23:30,0.152,0.136,0.218,0.213,0.214,0.119,0.077,west-southwest,4.8,No
2023/03/31,23:40,0.152,0.137,0.217,0.212,0.214,0.121,0.077,west-southwest,5.8,No
2023/03/31,23:50,0.153,0.136,0.216,0.212,0.212,0.120,0.077,west-southwest,5.0,No
